When you browse on this site, cookies collect data to enhance your experience and personalize the content and advertising you see.
Visit our Privacy Policy to learn more. By continuing to use the site, you agree to this use of cookies and data.
  • In Latvia
  • List of Countries
  • For 7 days
  • Water Temperature
  • Satellite Maps
  • Weather Map
  • Weather Widgets
  • user-avatar
    Login

    Hourly Weather Andora

    Today, 20 May, Monday

    Time Temperature Precipitation Wind Pressure Humidity
    00:00 +2°C° 0 mm 2 mps 618 mmHg 89%
    01:00 +1°C° 0 mm 2 mps 618 mmHg 89%
    02:00 +1°C° 0 mm 2 mps 618 mmHg 89%
    03:00 +1°C° 0 mm 2 mps 618 mmHg 89%
    04:00 +2°C° 0 mm 2 mps 619 mmHg 87%
    05:00 +2°C° 0 mm 2 mps 619 mmHg 84%
    06:00 +3°C° 0 mm 2 mps 619 mmHg 81%
    07:00 +5°C° 0 mm 2 mps 620 mmHg 72%
    08:00 +7°C° 0 mm 2 mps 621 mmHg 64%
    09:00 +9°C° 0 mm 2 mps 622 mmHg 55%
    10:00 +9°C° 0.1 mm 2 mps 622 mmHg 54%
    11:00 +10°C° 0.1 mm 2 mps 622 mmHg 54%
    12:00 +10°C° 0.1 mm 2 mps 622 mmHg 53%
    13:00 +11°C° 0.5 mm 1 mps 622 mmHg 59%
    14:00 +10°C° 0.5 mm 1 mps 621 mmHg 65%
    15:00 +9°C° 0.5 mm 1 mps 621 mmHg 71%
    16:00 +8°C° 0.8 mm 1 mps 621 mmHg 75%
    17:00 +8°C° 0.8 mm 1 mps 621 mmHg 80%
    18:00 +7°C° 0.8 mm 1 mps 620 mmHg 84%
    19:00 +7°C° 0.5 mm 1 mps 621 mmHg 88%
    20:00 +6°C° 0.5 mm 1 mps 621 mmHg 91%
    21:00 +6°C° 0.5 mm 1 mps 621 mmHg 94%
    22:00 +5°C° 0.1 mm 1 mps 621 mmHg 95%
    23:00 +5°C° 0.1 mm 1 mps 621 mmHg 95%

    Tomorrow, 21 May, Tuesday

    Time Temperature Precipitation Wind Pressure Humidity
    00:00 +4°C° 0.1 mm 1 mps 621 mmHg 96%
    01:00 +4°C° 0 mm 1 mps 621 mmHg 96%
    02:00 +4°C° 0 mm 1 mps 621 mmHg 95%
    03:00 +3°C° 0 mm 1 mps 620 mmHg 95%
    04:00 +4°C° 0 mm 1 mps 621 mmHg 93%
    05:00 +4°C° 0 mm 1 mps 621 mmHg 91%
    06:00 +5°C° 0 mm 1 mps 621 mmHg 89%
    07:00 +7°C° 0 mm 1 mps 623 mmHg 80%
    08:00 +9°C° 0 mm 1 mps 624 mmHg 71%
    09:00 +11°C° 0 mm 1 mps 625 mmHg 62%
    10:00 +12°C° 0.2 mm 1 mps 625 mmHg 61%
    11:00 +12°C° 0.2 mm 1 mps 625 mmHg 60%
    12:00 +13°C° 0.2 mm 1 mps 625 mmHg 58%
    13:00 +12°C° 0.3 mm 1 mps 624 mmHg 60%
    14:00 +12°C° 0.3 mm 1 mps 624 mmHg 62%
    15:00 +11°C° 0.3 mm 1 mps 624 mmHg 64%
    16:00 +10°C° 0.4 mm 1 mps 624 mmHg 70%
    17:00 +10°C° 0.4 mm 1 mps 623 mmHg 75%
    18:00 +9°C° 0.4 mm 1 mps 623 mmHg 80%
    19:00 +8°C° 0.2 mm 1 mps 623 mmHg 84%
    20:00 +7°C° 0.2 mm 1 mps 623 mmHg 87%
    21:00 +7°C° 0.2 mm 1 mps 624 mmHg 91%
    22:00 +6°C° 0 mm 1 mps 623 mmHg 92%
    23:00 +5°C° 0 mm 1 mps 623 mmHg 92%

    Day after tomorrow, 22 May, Wednesday

    Time Temperature Precipitation Wind Pressure Humidity
    00:00 +5°C° 0 mm 1 mps 623 mmHg 93%
    01:00 +5°C° 0 mm 1 mps 623 mmHg 93%
    02:00 +4°C° 0 mm 1 mps 623 mmHg 93%
    03:00 +4°C° 0 mm 1 mps 623 mmHg 93%
    04:00 +5°C° 0 mm 1 mps 623 mmHg 91%
    05:00 +6°C° 0 mm 1 mps 624 mmHg 88%
    06:00 +7°C° 0 mm 1 mps 624 mmHg 86%
    07:00 +9°C° 0 mm 1 mps 625 mmHg 75%
    08:00 +12°C° 0 mm 1 mps 626 mmHg 63%
    09:00 +13°C° 0 mm 0 mps 627 mmHg 52%
    10:00 +15°C° 0 mm 1 mps 628 mmHg 50%
    11:00 +15°C° 0 mm 1 mps 628 mmHg 47%
    12:00 +16°C° 0 mm 1 mps 628 mmHg 45%
    13:00 +15°C° 0.2 mm 1 mps 627 mmHg 50%
    14:00 +14°C° 0.2 mm 1 mps 626 mmHg 55%
    15:00 +13°C° 0.2 mm 1 mps 626 mmHg 60%
    16:00 +13°C° 0.2 mm 1 mps 626 mmHg 64%
    17:00 +11°C° 0.2 mm 0 mps 626 mmHg 69%
    18:00 +11°C° 0.2 mm 0 mps 625 mmHg 73%
    19:00 +10°C° 0.1 mm 1 mps 625 mmHg 78%
    20:00 +9°C° 0.1 mm 1 mps 625 mmHg 83%
    21:00 +7°C° 0.1 mm 1 mps 625 mmHg 88%
    22:00 +7°C° 0 mm 1 mps 624 mmHg 88%
    23:00 +7°C° 0 mm 1 mps 624 mmHg 88%

    23 May, Thursday

    Time Temperature Precipitation Wind Pressure Humidity
    00:00 +6°C° 0 mm 1 mps 624 mmHg 88%
    01:00 +6°C° 0 mm 1 mps 624 mmHg 86%
    02:00 +6°C° 0 mm 1 mps 624 mmHg 85%
    03:00 +6°C° 0 mm 1 mps 623 mmHg 83%
    04:00 +7°C° 0 mm 1 mps 624 mmHg 80%
    05:00 +8°C° 0 mm 1 mps 625 mmHg 76%
    06:00 +9°C° 0 mm 1 mps 625 mmHg 73%
    07:00 +12°C° 0 mm 1 mps 626 mmHg 65%
    08:00 +14°C° 0 mm 1 mps 627 mmHg 56%
    09:00 +16°C° 0 mm 0 mps 628 mmHg 48%
    10:00 +18°C° 0 mm 1 mps 629 mmHg 45%
    11:00 +19°C° 0 mm 1 mps 629 mmHg 42%
    12:00 +20°C° 0 mm 1 mps 629 mmHg 39%
    13:00 +18°C° 0.2 mm 1 mps 628 mmHg 46%
    14:00 +16°C° 0.2 mm 1 mps 627 mmHg 54%
    15:00 +14°C° 0.2 mm 1 mps 626 mmHg 62%
    16:00 +13°C° 0.6 mm 1 mps 626 mmHg 70%
    17:00 +12°C° 0.6 mm 1 mps 625 mmHg 78%
    18:00 +11°C° 0.6 mm 1 mps 625 mmHg 87%
    19:00 +10°C° 0.8 mm 1 mps 625 mmHg 89%
    20:00 +10°C° 0.8 mm 1 mps 625 mmHg 91%
    21:00 +9°C° 0.8 mm 1 mps 626 mmHg 93%
    22:00 +9°C° 0 mm 1 mps 625 mmHg 93%
    23:00 +8°C° 0 mm 1 mps 625 mmHg 93%

    24 May, Friday

    Time Temperature Precipitation Wind Pressure Humidity
    00:00 +8°C° 0 mm 1 mps 625 mmHg 94%
    01:00 +7°C° 0 mm 1 mps 625 mmHg 94%
    02:00 +7°C° 0 mm 1 mps 625 mmHg 94%
    03:00 +7°C° 0 mm 1 mps 625 mmHg 95%
    04:00 +7°C° 0 mm 1 mps 625 mmHg 93%
    05:00 +8°C° 0 mm 1 mps 625 mmHg 91%
    06:00 +8°C° 0 mm 1 mps 626 mmHg 89%
    07:00 +10°C° 0 mm 1 mps 626 mmHg 83%
    08:00 +12°C° 0 mm 1 mps 627 mmHg 76%
    09:00 +13°C° 0 mm 1 mps 628 mmHg 69%
    10:00 +14°C° 0 mm 2 mps 628 mmHg 67%
    11:00 +15°C° 0 mm 2 mps 628 mmHg 64%
    12:00 +15°C° 0 mm 2 mps 627 mmHg 61%
    13:00 +15°C° 0.1 mm 2 mps 627 mmHg 57%
    14:00 +15°C° 0.1 mm 2 mps 627 mmHg 53%
    15:00 +14°C° 0.1 mm 3 mps 627 mmHg 50%
    16:00 +13°C° 0 mm 3 mps 626 mmHg 53%
    17:00 +13°C° 0 mm 2 mps 626 mmHg 56%
    18:00 +12°C° 0 mm 2 mps 625 mmHg 60%
    19:00 +10°C° 0 mm 2 mps 625 mmHg 66%
    20:00 +9°C° 0 mm 2 mps 625 mmHg 72%
    21:00 +8°C° 0 mm 2 mps 624 mmHg 78%
    22:00 +8°C° 0.1 mm 2 mps 624 mmHg 80%
    23:00 +8°C° 0.1 mm 3 mps 624 mmHg 82%

    25 May, Saturday

    Time Temperature Precipitation Wind Pressure Humidity
    00:00 +8°C° 0.1 mm 3 mps 624 mmHg 84%
    01:00 +7°C° 0.1 mm 3 mps 624 mmHg 84%
    02:00 +7°C° 0.1 mm 3 mps 624 mmHg 84%
    03:00 +7°C° 0.1 mm 3 mps 624 mmHg 84%
    04:00 +7°C° 0.1 mm 3 mps 624 mmHg 83%
    05:00 +7°C° 0.1 mm 3 mps 624 mmHg 83%
    06:00 +8°C° 0.1 mm 3 mps 624 mmHg 82%
    07:00 +8°C° 0.2 mm 3 mps 624 mmHg 82%
    08:00 +8°C° 0.2 mm 3 mps 624 mmHg 82%
    09:00 +8°C° 0.2 mm 3 mps 624 mmHg 83%
    10:00 +9°C° 0.2 mm 3 mps 625 mmHg 81%
    11:00 +9°C° 0.2 mm 3 mps 625 mmHg 80%
    12:00 +9°C° 0.2 mm 3 mps 625 mmHg 78%
    13:00 +10°C° 0.2 mm 4 mps 625 mmHg 79%
    14:00 +10°C° 0.2 mm 4 mps 625 mmHg 79%
    15:00 +10°C° 0.2 mm 4 mps 625 mmHg 79%
    16:00 +8°C° 0.1 mm 4 mps 625 mmHg 80%
    17:00 +9°C° 0.1 mm 3 mps 625 mmHg 81%
    18:00 +9°C° 0.1 mm 3 mps 625 mmHg 83%
    19:00 +9°C° 0 mm 3 mps 625 mmHg 85%
    20:00 +8°C° 0 mm 3 mps 625 mmHg 87%
    21:00 +7°C° 0 mm 3 mps 625 mmHg 89%
    22:00 +7°C° 0 mm 3 mps 625 mmHg 88%
    23:00 +7°C° 0 mm 3 mps 625 mmHg 87%
    Show more